Regional Weather Roundup
Issued by NWS

Home | Current Version | Previous Version | Graphics & Text | Print | Product List | Glossary On
Versions: 1 2 3 4 5 6 7 8 9 10 11 12 13 14 15 16 17 18 19 20 21 22 23 24 25 26 27 28 29 30 31 32 33 34 35 36 37 38 39 40 41 42 43 44 45 46 47 48 49 50
805
ASUS45 KSLC 171310
RWRUT

UTAH REGIONAL WEATHER ROUNDUP
NATIONAL WEATHER SERVICE SALT LAKE CITY UT
600 AM MST WED JAN 17 2018

UTZ001>011-023>025-171400-

NORTHERN UTAH

CITY           SKY/WX    TMP DP  RH WIND       PRES   REMARKS
BRIGHAM CITY   CLOUDY    33  30  88 CALM      30.38R
HILL AFB       CLEAR     30  21  68 E12       30.36S WCI  21
LOGAN          CLOUDY    34  28  79 SE5       30.38S WCI  30
OGDEN          CLEAR     29  22  75 S6        30.36S WCI  23
SALT LAKE CITY PTCLDY    32  27  81 CALM      30.37R
TOOELE VALLEY  CLEAR     28  27  93 S3        30.38R
WENDOVER       PTCLDY    20  17  88 NE3       30.37S
HEBER CITY       N/A     23  19  86 CALM      30.36R
WEST JORDAN    CLEAR     30  27  89 W8        30.37S WCI  22

$$

UTZ011>015-024>027-171400-

CENTRAL/NORTHEAST UTAH

CITY           SKY/WX    TMP DP  RH WIND       PRES   REMARKS
PROVO AIRPORT  CLEAR     23  21  92 CALM      30.39R
MOAB/CANYONLAN CLOUDY    30  22  72 SE5       30.36S WCI  25
DELTA          CLEAR     27  27 100 SE6       30.35F WCI  20
PRICE          CLEAR     22  18  85 CALM      30.34R
ROOSEVELT      MOCLDY    19  14  79 CALM      30.42R
VERNAL         CLOUDY    19  13  77 CALM      30.39R

$$

UTZ013>016-019>022-027-171400-

SOUTHERN UTAH

CITY           SKY/WX    TMP DP  RH WIND       PRES   REMARKS
BRYCE CANYON   CLEAR     22  19  89 W3        30.35R
CEDAR CITY     CLEAR     24  22  91 CALM      30.31F
MILFORD        CLEAR     26  24  92 W7        30.33S WCI  18
ST GEORGE      SUNNY     39  29  67 CALM      30.31S
HANKSVILLE     PTCLDY    23  10  58 CALM      30.40R
KANAB          CLEAR     32  23  69 N5        30.36R WCI  27
BLANDING         N/A     26  19  77 NW3       30.41S

$$

REGIONAL REPORTS     COLORADO/ARIZONA

CITY           SKY/WX    TMP DP  RH WIND       PRES   REMARKS
CRAIG, CO      CLEAR      6  -1  73 CALM      30.38R
GRAND JUNCTION PTCLDY    15  12  88 CALM      30.39F
RIFLE, CO      CLEAR     15   9  76 CALM      30.42S
MONTROSE, CO   PTCLDY    15   9  76 SE9       30.41S WCI   3
CORTEZ, CO     MOCLDY    16  14  92 NE5       30.35S WCI   9
COLORADO CITY    N/A     28  25  86 CALM      30.33F
PAGE, AZ       CLEAR     34  21  59 CALM      30.33R
GRAND CANYON   CLEAR     20  17  88 CALM      30.32R
KINGMAN, AZ    CLEAR     39  31  72 E3        30.25R
FLAGSTAFF, AZ  CLEAR     21  17  84 CALM      30.30S

$$

REGIONAL REPORTS    NEVADA/IDAHO/WYOMING

CITY           SKY/WX    TMP DP  RH WIND       PRES   REMARKS
LAS VEGAS, NV  PTCLDY    46  37  71 SW7       30.24R
ELY, NY        PTCLDY    19  16  88 S9        30.34S WCI   8
ELKO, NV       CLEAR     24  23  96 NE3       30.34R
POCATELLO, ID  CLEAR     28  26  92 NW8       30.38R WCI  20
BURLEY, ID     CLEAR     31  28  89 VRB5      30.35S WCI  26
FORT BRIDGER,  PTSUNNY   31  22  68 NW7       30.35S WCI  24
EVANSTON, WY   CLEAR     29  19  66 SW3       30.34R
ROCK SPRINGS,  MOCLDY    20  12  71 W9        30.32R WCI   9

$$




USA.gov is the U.S. government's official web portal to all federal, state and local government web resources and services.